Terminal Aerodrome Forecast
Issued by NWS

Home | Current Version | Previous Version | Text Only | Print | Product List | Glossary On
Versions: 1 2 3 4 5 6 7 8 9 10 11 12 13 14 15 16
000
FTUS43 KILX 101100
TAFCMI
TAF
KCMI 101120Z 1012/1112 VRB06KT P6SM SCT050
     FM110000 10005KT P6SM SCT250=

USA.gov is the U.S. government's official web portal to all federal, state and local government web resources and services.